Regional Weather Roundup
Issued by NWS

Home | Current Version | Previous Version | Graphics & Text | Print | Product List | Glossary On
Versions: 1 2 3 4 5 6 7 8 9 10 11 12 13 14 15 16 17 18 19 20 21 22 23 24 25 26 27 28 29 30 31 32 33 34 35 36 37 38 39 40 41 42 43 44 45 46 47 48 49 50
744
ASUS44 KMEG 271300
RWRTN
TENNESSEE HOURLY STATE WEATHER ROUNDUP
NATIONAL WEATHER SERVICE MEMPHIS TN
800 AM CDT WED JUL 27 2016

TNZ002-004-019-021-049-052-054-088>092-271400-
WEST TENNESSEE

CITY           SKY/WX    TMP DP  RH WIND       PRES   REMARKS
MEMPHIS INTL   MOSUNNY   81  74  79 S8        29.97S
NWS MEMPHIS      N/A     79 N/A N/A MISG        N/A
JACKSON        MOSUNNY   77  75  93 S3        30.00R
DYERSBURG      SUNNY     77  72  83 MISG      29.99S
PARIS          SUNNY     77  73  88 CALM      30.01S
LEXINGTON      SUNNY     79  73  83 SW6       30.01S
$$

TNZ008-025-027-028-033-062-065-066-271400-
NORTH MIDDLE TENNESSEE

CITY           SKY/WX    TMP DP  RH WIND       PRES   REMARKS
NASHVILLE      MOSUNNY   79  73  82 SE3       30.03S
CLARKSVILLE    PTSUNNY   77  74  90 CALM      30.01S
COOKEVILLE     SUNNY     81  73  78 CALM      30.05S
CROSSVILLE     SUNNY     76  70  82 W7        30.11F
$$

TNZ061-075-076-078-094-096-097-271400-
SOUTH MIDDLE TENNESSEE

CITY           SKY/WX    TMP DP  RH WIND       PRES   REMARKS
TULLAHOMA      SUNNY     79  73  83 S6        30.08R
WINCHESTER     SUNNY     81  73  78 S5        30.07R
MCMINNVILLE    SUNNY     82  75  78 CALM      30.06S
COLUMBIA       CLOUDY   N/A N/A N/A S9        30.02S
SHELBYVILLE    SUNNY     81  75  83 S6        30.06R
$$

TNZ017-018-042-046-047-271400-
NORTHEAST TENNESSEE

CITY           SKY/WX    TMP DP  RH WIND       PRES   REMARKS
TRI CITIES     PTSUNNY   76  71  85 CALM      30.10S
$$

TNZ012-013-036-069-073-074-271400-
CENTRAL EAST TENNESSEE

CITY           SKY/WX    TMP DP  RH WIND       PRES   REMARKS
KNOXVILLE      MOSUNNY   79  72  79 SW5       30.06S
OAK RIDGE      SUNNY     81  72  74 VRB3      30.07S
GATLINBURG     SUNNY     79  70  73 S3        30.07S
$$

TNZ083-085-099-271400-
SOUTHEAST TENNESSEE

CITY           SKY/WX    TMP DP  RH WIND       PRES   REMARKS
CHATTANOOGA    PTSUNNY   81  72  74 S5        30.07R
$$

SKY/WX REPORTED AS FAIR MEANS FEW OR NO CLOUDS BELOW
12 THOUSAND FEET.





USA.gov is the U.S. government's official web portal to all federal, state and local government web resources and services.